• In Slovakia
  • List of Countries
  • For 7 days
  • Water Temperature
  • Satellite Maps
  • Weather Map
  • Weather Widgets
  • user-avatar
    Login

    Hourly Weather Rudunki

    Today, 18 August, Saturday

    Time Temperature Precipitation Wind Pressure Humidity
    00:00 +21°C° 0 mm 3 mps 750 mmHg 73%
    01:00 +20°C° 0 mm 2 mps 751 mmHg 76%
    02:00 +20°C° 0 mm 2 mps 751 mmHg 78%
    03:00 +20°C° 0 mm 2 mps 751 mmHg 79%
    04:00 +19°C° 0 mm 2 mps 751 mmHg 81%
    05:00 +20°C° 0 mm 2 mps 751 mmHg 77%
    06:00 +23°C° 0 mm 2 mps 751 mmHg 73%
    07:00 +24°C° 0 mm 2 mps 752 mmHg 69%
    08:00 +25°C° 0 mm 1 mps 752 mmHg 63%
    09:00 +27°C° 0 mm 1 mps 752 mmHg 57%
    10:00 +28°C° 0 mm 1 mps 752 mmHg 51%
    11:00 +29°C° 0 mm 1 mps 752 mmHg 48%
    12:00 +30°C° 0 mm 1 mps 752 mmHg 44%
    13:00 +31°C° 0 mm 1 mps 752 mmHg 41%
    14:00 +31°C° 0 mm 1 mps 752 mmHg 40%
    15:00 +31°C° 0 mm 1 mps 752 mmHg 40%
    16:00 +31°C° 0 mm 2 mps 752 mmHg 39%
    17:00 +29°C° 0 mm 2 mps 752 mmHg 44%
    18:00 +28°C° 0 mm 2 mps 752 mmHg 49%
    19:00 +27°C° 0 mm 2 mps 752 mmHg 54%
    20:00 +25°C° 0.6 mm 2 mps 752 mmHg 60%
    21:00 +24°C° 0.6 mm 2 mps 753 mmHg 65%
    22:00 +23°C° 0.6 mm 2 mps 753 mmHg 71%
    23:00 +21°C° 0.2 mm 2 mps 753 mmHg 74%

    Tomorrow, 19 August, Sunday

    Time Temperature Precipitation Wind Pressure Humidity
    00:00 +21°C° 0.2 mm 2 mps 753 mmHg 77%
    01:00 +20°C° 0.2 mm 2 mps 753 mmHg 81%
    02:00 +20°C° 0 mm 2 mps 753 mmHg 84%
    03:00 +19°C° 0 mm 2 mps 753 mmHg 86%
    04:00 +19°C° 0 mm 2 mps 753 mmHg 89%
    05:00 +21°C° 0 mm 1 mps 754 mmHg 85%
    06:00 +22°C° 0 mm 1 mps 754 mmHg 81%
    07:00 +23°C° 0 mm 1 mps 754 mmHg 78%
    08:00 +24°C° 0 mm 1 mps 754 mmHg 69%
    09:00 +26°C° 0 mm 2 mps 754 mmHg 60%
    10:00 +27°C° 0 mm 2 mps 754 mmHg 51%
    11:00 +28°C° 0 mm 2 mps 754 mmHg 48%
    12:00 +29°C° 0 mm 2 mps 753 mmHg 44%
    13:00 +29°C° 0 mm 2 mps 753 mmHg 41%
    14:00 +29°C° 0 mm 2 mps 753 mmHg 42%
    15:00 +29°C° 0 mm 2 mps 753 mmHg 42%
    16:00 +29°C° 0 mm 2 mps 752 mmHg 42%
    17:00 +28°C° 0 mm 1 mps 752 mmHg 46%
    18:00 +27°C° 0 mm 1 mps 752 mmHg 49%
    19:00 +23°C° 0 mm 0 mps 752 mmHg 52%
    20:00 +23°C° 0 mm 0 mps 752 mmHg 54%
    21:00 +22°C° 0 mm 0 mps 753 mmHg 56%
    22:00 +21°C° 0 mm 0 mps 753 mmHg 57%
    23:00 +21°C° 0 mm 0 mps 753 mmHg 59%

    Day after tomorrow, 20 August, Monday

    Time Temperature Precipitation Wind Pressure Humidity
    00:00 +22°C° 0 mm 1 mps 752 mmHg 61%
    01:00 +22°C° 0 mm 1 mps 752 mmHg 63%
    02:00 +22°C° 0 mm 1 mps 752 mmHg 65%
    03:00 +21°C° 0 mm 1 mps 752 mmHg 67%
    04:00 +21°C° 0 mm 1 mps 752 mmHg 69%
    05:00 +22°C° 0 mm 1 mps 752 mmHg 68%
    06:00 +23°C° 0 mm 2 mps 752 mmHg 66%
    07:00 +24°C° 0 mm 2 mps 752 mmHg 65%
    08:00 +26°C° 0.1 mm 2 mps 752 mmHg 60%
    09:00 +27°C° 0.1 mm 2 mps 751 mmHg 55%
    10:00 +29°C° 0.1 mm 2 mps 751 mmHg 50%
    11:00 +29°C° 0.1 mm 2 mps 751 mmHg 48%
    12:00 +30°C° 0.1 mm 2 mps 751 mmHg 46%
    13:00 +30°C° 0.1 mm 2 mps 750 mmHg 45%
    14:00 +30°C° 0 mm 2 mps 750 mmHg 45%
    15:00 +30°C° 0 mm 2 mps 750 mmHg 45%
    16:00 +30°C° 0 mm 2 mps 749 mmHg 45%
    17:00 +29°C° 0 mm 2 mps 749 mmHg 48%
    18:00 +28°C° 0 mm 2 mps 749 mmHg 50%
    19:00 +27°C° 0 mm 1 mps 749 mmHg 53%
    20:00 +26°C° 0 mm 1 mps 749 mmHg 54%
    21:00 +25°C° 0 mm 2 mps 749 mmHg 56%
    22:00 +25°C° 0 mm 2 mps 749 mmHg 57%
    23:00 +24°C° 0 mm 2 mps 749 mmHg 59%

    21 August, Tuesday

    Time Temperature Precipitation Wind Pressure Humidity
    00:00 +24°C° 0 mm 3 mps 749 mmHg 61%
    01:00 +22°C° 0 mm 3 mps 749 mmHg 62%
    02:00 +22°C° 0 mm 3 mps 749 mmHg 65%
    03:00 +21°C° 0 mm 3 mps 750 mmHg 68%
    04:00 +21°C° 0 mm 4 mps 750 mmHg 70%
    05:00 +21°C° 0 mm 4 mps 750 mmHg 72%
    06:00 +21°C° 0 mm 4 mps 751 mmHg 74%
    07:00 +21°C° 0 mm 5 mps 751 mmHg 77%
    08:00 +22°C° 0 mm 5 mps 751 mmHg 73%
    09:00 +23°C° 0 mm 5 mps 752 mmHg 69%
    10:00 +23°C° 0 mm 5 mps 752 mmHg 65%
    11:00 +25°C° 0 mm 5 mps 752 mmHg 59%
    12:00 +26°C° 0 mm 5 mps 752 mmHg 53%
    13:00 +27°C° 0 mm 5 mps 752 mmHg 47%
    14:00 +27°C° 0 mm 4 mps 752 mmHg 46%
    15:00 +27°C° 0 mm 4 mps 752 mmHg 45%
    16:00 +27°C° 0 mm 4 mps 752 mmHg 44%
    17:00 +26°C° 0 mm 3 mps 752 mmHg 48%
    18:00 +25°C° 0 mm 3 mps 752 mmHg 52%
    19:00 +23°C° 0 mm 2 mps 752 mmHg 56%
    20:00 +23°C° 0 mm 2 mps 753 mmHg 58%
    21:00 +22°C° 0 mm 1 mps 753 mmHg 61%
    22:00 +21°C° 0 mm 1 mps 753 mmHg 63%
    23:00 +21°C° 0 mm 1 mps 753 mmHg 64%

    22 August, Wednesday

    Time Temperature Precipitation Wind Pressure Humidity
    00:00 +20°C° 0 mm 1 mps 753 mmHg 66%
    01:00 +20°C° 0 mm 1 mps 754 mmHg 67%
    02:00 +20°C° 0 mm 1 mps 754 mmHg 67%
    03:00 +19°C° 0 mm 1 mps 754 mmHg 67%
    04:00 +19°C° 0 mm 1 mps 754 mmHg 67%
    05:00 +20°C° 0 mm 1 mps 754 mmHg 65%
    06:00 +21°C° 0 mm 1 mps 754 mmHg 64%
    07:00 +21°C° 0 mm 2 mps 754 mmHg 62%
    08:00 +24°C° 0 mm 2 mps 754 mmHg 57%
    09:00 +25°C° 0 mm 2 mps 754 mmHg 52%
    10:00 +27°C° 0 mm 2 mps 753 mmHg 48%
    11:00 +27°C° 0 mm 2 mps 753 mmHg 47%
    12:00 +28°C° 0 mm 2 mps 753 mmHg 46%
    13:00 +28°C° 0 mm 2 mps 752 mmHg 45%
    14:00 +28°C° 0 mm 2 mps 752 mmHg 45%
    15:00 +28°C° 0 mm 2 mps 752 mmHg 45%
    16:00 +28°C° 0 mm 1 mps 752 mmHg 45%
    17:00 +27°C° 0 mm 1 mps 752 mmHg 49%
    18:00 +26°C° 0 mm 1 mps 752 mmHg 52%
    19:00 +25°C° 0 mm 1 mps 752 mmHg 55%
    20:00 +24°C° 0 mm 2 mps 752 mmHg 57%
    21:00 +24°C° 0 mm 2 mps 752 mmHg 58%
    22:00 +23°C° 0 mm 2 mps 752 mmHg 60%
    23:00 +23°C° 0 mm 2 mps 752 mmHg 61%

    23 August, Thursday

    Time Temperature Precipitation Wind Pressure Humidity
    00:00 +21°C° 0 mm 2 mps 752 mmHg 63%
    01:00 +21°C° 0 mm 2 mps 752 mmHg 64%
    02:00 +22°C° 0 mm 1 mps 752 mmHg 65%
    03:00 +22°C° 0 mm 1 mps 752 mmHg 66%
    04:00 +21°C° 0 mm 1 mps 752 mmHg 67%
    05:00 +22°C° 0 mm 1 mps 752 mmHg 66%
    06:00 +23°C° 0 mm 1 mps 752 mmHg 65%
    07:00 +24°C° 0 mm 1 mps 752 mmHg 64%
    08:00 +25°C° 0 mm 1 mps 752 mmHg 59%
    09:00 +26°C° 0 mm 1 mps 752 mmHg 54%
    10:00 +28°C° 0 mm 1 mps 752 mmHg 49%
    11:00 +29°C° 0 mm 1 mps 751 mmHg 46%
    12:00 +29°C° 0 mm 1 mps 751 mmHg 43%
    13:00 +30°C° 0 mm 1 mps 751 mmHg 40%
    14:00 +30°C° 0 mm 1 mps 750 mmHg 41%
    15:00 +29°C° 0 mm 1 mps 750 mmHg 42%
    16:00 +29°C° 0 mm 2 mps 750 mmHg 43%
    17:00 +28°C° 0 mm 2 mps 750 mmHg 46%
    18:00 +27°C° 0 mm 2 mps 750 mmHg 49%
    19:00 +26°C° 0 mm 2 mps 749 mmHg 52%
    20:00 +25°C° 0 mm 3 mps 749 mmHg 54%
    21:00 +24°C° 0 mm 3 mps 749 mmHg 56%
    22:00 +22°C° 0 mm 3 mps 749 mmHg 57%
    23:00 +22°C° 0 mm 3 mps 749 mmHg 59%
    Show more